Location: Bagnolo San Vito
(45.0833°N, 10.8833°E)
Time: 23:29:46
(UTC+00:00)

USA 234 - Pass Details

Date: 03 March 2021
Orbit: 1102 x 1105 km, 123.0° (Epoch: 16 April)

Event Time Altitude Azimuth Distance (km) Brightness Sun altitude
Exits shadow 17:52:36 - 59° (ENE) 3,386 5.3 -8.9°
Reaches altitude 10° 17:53:49 10° 63° (ENE) 2,965 5.0 -9.1°
Maximum altitude 17:59:48 37° 129° (SE) 1,648 3.8 -10.2°
Drops below altitude 10° 18:05:44 10° 195° (SSW) 2,952 5.7 -11.2°
Sets 18:08:26 0° 204° (SSW) 3,907 6.4 -11.7°
